RH
17 12 9 10 11 11 10 9 9 8 8 9 9 9 10 11 10 12 13 14 13 11 12 12 11 11 12 12 12 12 14 18 28
11 11 12 12 11 10 9 8 8 7 7 7 7 8 9 10 10 9 10 10 8 7 7 9 8 15 16 12 8 8 8 9 10
12 14 13 11 10 10 9 9 9 8 7 7 6 6 7 10 9 9 9 12 15 9 8 15 14 14 13 13 9 6 5 5 6
15 14 12 11 11 11 12 11 10 10 9 8 7 7 7 8 8 8 8 17 11 7 6 6 6 6 6 5 5 5 5 5 5
14 13 13 13 13 14 13 13 12 10 9 8 7 7 7 8 8 7 10 8 6 5 5 4 5 4 4 4 4 4 4 4 3
14 14 14 15 15 15 14 14 12 10 9 9 8 8 8 8 7 7 6 5 4 4 4 4 3 3 3 3 4 5 4 3 3
16 16 16 16 17 16 16 15 14 12 10 8 8 8 8 7 6 6 5 4 4 4 4 3 3 3 2 2 3 4 4 3 2
17 17 18 18 18 18 17 17 16 13 11 10 9 9 8 7 5 5 5 4 4 4 3 3 2 2 2 2 2 3 4 4 3
18 18 19 20 20 20 19 18 16 14 12 11 10 9 7 7 5 5 4 4 4 4 3 3 2 2 2 2 3 3 3 3 3
19 20 20 20 21 21 21 20 18 16 13 11 10 9 6 6 5 5 4 4 4 4 3 3 3 2 2 3 4 4 5 5 5
20 20 20 21 21 22 23 22 21 19 16 13 11 9 7 6 6 5 5 5 5 4 4 3 3 3 2 3 4 4 4 5 7
21 21 21 21 22 23 24 24 23 21 20 15 13 9 7 6 5 5 6 5 5 4 4 4 3 3 2 3 4 4 5 6 7
22 22 22 22 23 24 25 27 26 24 22 19 14 10 8 6 6 5 6 5 5 5 4 4 3 3 3 3 3 4 5 6 7
23 24 23 22 23 24 26 29 29 27 24 21 16 11 9 7 6 6 6 6 6 5 5 4 4 3 3 3 4 5 5 6 6
24 25 24 22 23 23 26 32 32 30 27 24 17 12 9 7 6 7 6 6 6 6 5 5 4 3 3 3 4 5 6 7 8
25 26 25 24 24 23 25 32 34 33 29 25 20 17 14 9 10 7 7 7 7 7 6 5 4 3 3 4 5 6 8 9 10
23 26 26 26 24 23 26 32 34 36 32 25 18 18 24 21 11 13 10 9 8 8 7 6 4 4 4 4 5 7 8 10 12
23 26 27 27 25 24 26 31 37 39 36 28 21 14 21 26 16 18 16 12 11 9 8 7 5 5 4 5 6 8 9 10 11
22 23 27 28 27 26 26 31 37 41 41 33 23 14 10 8 11 15 13 13 11 8 9 8 7 6 7 7 8 9 9 10 13
21 22 27 28 29 28 27 30 37 41 44 41 29 17 11 8 9 9 12 14 11 9 9 9 9 9 7 8 9 9 11 12 14
Wind_Speed
7 6 6 7 6 7 8 9 10 11 11 12 12 12 10 7 5 5 4 5 8 7 6 5 5 6 7 7 7 7 7 7 8
8 8 9 8 8 8 10 10 11 12 12 11 12 11 10 6 6 6 6 6 8 8 8 8 7 7 7 6 6 6 7 7 7
9 9 9 9 10 10 11 11 12 13 12 11 11 11 9 6 6 7 7 9 9 9 9 9 9 8 8 8 7 7 8 8 8
12 11 11 11 11 12 12 12 12 12 12 11 10 10 9 5 8 8 8 8 10 10 10 10 10 10 9 9 9 9 9 10 11
13 12 12 12 12 11 12 12 12 11 12 10 10 10 7 7 7 7 7 9 11 11 11 11 12 12 13 12 12 11 11 10 11
15 14 14 13 12 11 12 11 10 11 10 10 8 8 6 7 6 6 8 9 9 10 11 12 13 14 13 13 13 12 13 13 13
16 16 14 13 12 12 11 10 9 9 9 8 7 5 5 6 4 5 6 7 8 9 10 11 12 13 14 15 15 15 15 14 14
17 16 14 13 12 11 10 9 8 8 6 7 5 4 3 5 4 4 6 7 8 10 11 12 12 12 13 13 14 15 15 15 16
19 17 15 13 11 9 8 7 7 6 5 4 5 3 2 4 3 4 6 8 9 11 12 13 13 15 15 15 15 15 15 16 16
20 17 15 13 11 9 8 6 5 4 4 3 3 3 2 3 3 4 6 7 10 10 12 13 15 16 17 18 18 19 20 20 19
21 19 16 14 11 9 7 6 4 3 2 2 2 2 2 3 3 3 5 6 11 11 13 14 16 17 17 17 18 18 20 19 19
22 20 17 14 12 10 8 6 5 3 2 1 1 2 3 4 3 4 5 6 10 12 11 16 16 17 17 17 17 19 20 20 20
24 22 19 15 13 10 8 6 5 3 1 1 2 2 4 5 5 5 5 9 11 12 14 16 17 18 18 19 19 20 21 21 21
26 24 20 18 15 11 9 7 6 4 2 2 4 5 7 5 6 6 4 10 10 11 15 16 17 18 18 18 18 18 20 20 22
28 26 23 19 16 13 11 9 7 5 2 2 5 5 8 7 7 8 6 12 10 11 15 17 16 17 19 18 18 19 21 21 23
32 28 26 21 18 15 13 11 8 6 4 3 4 6 7 7 9 6 10 11 11 13 16 17 17 18 19 19 18 18 21 22 24
33 32 27 24 21 18 15 13 10 8 5 3 4 4 7 7 5 11 9 11 12 13 18 17 17 18 19 19 19 20 23 25 26
38 33 29 27 23 20 17 14 12 9 6 5 4 3 3 8 11 9 11 13 12 16 16 16 20 18 17 18 19 21 24 26 27
37 34 33 29 26 24 20 17 14 10 8 7 6 7 9 6 7 9 13 14 16 20 19 21 19 15 17 20 22 25 27 28 29
40 37 36 31 29 26 22 19 15 12 10 8 8 8 9 11 12 16 12 18 20 20 21 19 18 18 21 23 27 29 30 29 31
Wind_Direction
164 166 146 134 125 118 109 106 105 101 106 112 116 118 116 130 123 103 76 43 46 47 41 32 20 6 0 351 345 337 330 326 319
164 149 140 135 127 120 112 110 108 107 109 113 115 112 114 124 102 82 73 58 46 46 40 32 27 27 22 11 351 338 329 323 314
154 146 139 131 125 120 113 112 109 107 110 111 112 112 116 115 93 82 69 53 49 47 44 39 32 24 17 14 0 346 333 325 316
155 150 141 135 126 120 118 112 105 104 107 108 108 105 105 94 66 65 61 50 37 32 25 17 13 7 4 357 350 343 338 330 325
155 149 142 136 128 122 114 106 104 104 103 101 103 101 98 90 76 67 53 27 19 15 14 10 4 0 356 353 351 346 337 326 318
160 156 146 137 131 120 111 107 106 106 103 99 94 88 81 69 62 56 30 19 9 5 3 0 359 357 356 352 351 351 345 337 332
160 158 147 142 133 123 116 111 114 108 100 95 95 87 77 73 58 47 30 15 4 2 358 359 357 355 352 351 351 351 350 342 337
164 159 152 146 137 131 126 120 107 105 111 111 102 83 72 72 52 35 28 11 7 6 1 3 0 357 353 347 349 348 347 343 339
170 166 158 152 144 135 123 119 121 118 118 113 102 86 65 63 45 24 22 16 14 359 2 359 358 355 353 352 349 345 341 338 336
176 169 164 157 149 142 137 136 131 123 118 101 82 72 49 16 32 20 16 19 6 355 0 358 358 355 353 350 347 345 343 340 339
182 176 171 165 161 153 152 147 147 143 126 102 56 34 12 349 354 5 3 13 2 358 356 1 360 355 349 344 340 337 335 335 336
187 182 178 172 169 164 164 164 164 167 164 127 45 350 338 325 326 332 342 1 1 354 2 355 353 348 343 339 334 332 332 333 331
191 187 183 179 180 173 177 181 182 187 231 311 327 328 316 309 311 314 322 342 351 355 354 352 346 343 340 336 334 333 332 331 329
196 193 189 189 188 183 193 196 203 207 221 303 312 313 307 290 291 308 300 334 339 349 348 345 343 338 334 332 333 329 326 326 326
199 198 196 195 194 193 199 202 209 213 225 281 296 299 300 286 283 300 284 322 333 337 340 339 339 335 332 330 331 330 327 327 325
203 202 202 200 199 203 204 205 213 222 225 264 279 293 296 287 285 278 296 312 324 329 333 336 336 333 329 332 333 331 329 328 326
208 208 207 206 206 208 209 210 214 216 225 250 287 302 297 285 271 293 299 306 314 322 330 331 334 331 330 331 334 334 332 329 327
211 209 211 211 211 214 215 216 217 216 221 236 231 220 250 294 290 282 290 302 308 320 324 335 335 331 329 333 335 334 332 328 325
212 212 213 215 215 216 217 220 223 223 223 236 246 254 261 274 284 280 292 300 310 325 330 332 335 334 336 336 339 335 333 331 326
214 214 215 215 218 218 219 220 224 231 234 240 246 251 261 270 271 291 292 305 312 318 327 332 334 337 339 338 337 336 335 331 326